Regional Weather Roundup
Issued by NWS

Home | Current Version | Previous Version | Text Only | Print | Product List | Glossary On
Versions: 1 2 3 4 5 6 7 8 9 10 11 12 13 14 15 16 17 18 19 20 21 22 23 24 25 26 27 28 29 30 31 32 33 34 35 36 37 38 39 40 41 42 43 44 45 46 47 48 49 50
207
ASUS45 KREV 280210
RWRNV
NEVADA REGIONAL WEATHER ROUNDUP
NATIONAL WEATHER SERVICE RENO NV
700 PM PDT MON MAR 27 2017

NOTE: "FAIR" INDICATES FEW OR NO CLOUDS BELOW 12,000 FEET WITH NO
SIGNIFICANT WEATHER AND/OR OBSTRUCTIONS TO VISIBILITY.

NVZ001-003-004-280300-
WESTERN NEVADA

CITY           SKY/WX    TMP DP  RH WIND       PRES   REMARKS
RENO           PTCLDY    48  20  32 N17       30.19R
CARSON CITY    CLOUDY    46  19  34 NW9       30.19R
MINDEN         FAIR      45  21  39 N10       30.19R
FALLON         PTCLDY    49  21  33 NW12      30.16R
LOVELOCK       CLEAR     48  22  35 N10       30.15
HAWTHORNE      PTCLDY    48  16  27 N22       30.13R
$$

NVZ002-CAZ072-073-280300-
NORTHERN AND CENTRAL SIERRA

CITY           SKY/WX    TMP DP  RH WIND       PRES   REMARKS
S. LAKE TAHOE  MOCLDY    37  21  52 N6        30.17R
TRUCKEE        MOCLDY    36  25  64 NW6       30.20R
SQUAW VLY 8000 NOT AVBL
SUSANVILLE     PTCLDY    48  25  40 CALM      30.19R
MAMMOTH LAKES  FAIR      37  19  47 NW13      30.14R
BRIDGEPORT       N/A     37  18  46 VRB6      30.12R
$$

NVZ030-031-036-280300-
NORTHERN NEVADA

CITY           SKY/WX    TMP DP  RH WIND       PRES   REMARKS
ELKO           CLEAR     43  24  47 NW10      30.09R
WINNEMUCCA     PTCLDY    45  26  47 N10       30.15R
WENDOVER       MOCLDY    48  26  42 N20G30    30.00R
$$

NVZ035-037-280300-
CENTRAL NEVADA

CITY           SKY/WX    TMP DP  RH WIND       PRES   REMARKS
ELY            LGT SNOW  34  31  88 N18G25    30.02R
EUREKA           N/A     37  25  61 N16       30.09R
$$

NVZ013-014-280300-
SOUTH CENTRAL NEVADA

CITY           SKY/WX    TMP DP  RH WIND       PRES   REMARKS
TONOPAH        PTCLDY    44  17  33 N23G32    30.06R
$$

NVZ017-020-022-280300-
SOUTHERN NEVADA

CITY           SKY/WX    TMP DP  RH WIND       PRES   REMARKS
LAS VEGAS      PTCLDY    63  33  32 NE22      29.84R
N. LAS VEGAS   PTCLDY    65  31  28 N12       29.84R
NELLIS AFB     PTCLDY    61  38  43 N26G36    29.84R
HENDERSON      PTCLDY    61  37  41 NE15G24   29.86R
MERCURY        CLEAR     58  11  15 N25       29.91R
$$




USA.gov is the U.S. government's official web portal to all federal, state and local government web resources and services.